Location: Fort Wayne
(41.1310°N, 85.1290°W)
Time: 10:57:09
(UTC-05:00)

ISS - Visible Passes

Search period start: 23 November 2014 00:00
Search period end: 03 December 2014 00:00
Orbit: 408 x 417 km, 51.6° (Epoch: 23 November)

Date Brightness Start Highest point End Pass type
(mag) Time Alt. Az. Time Alt. Az. Time Alt. Az.
23 Nov -0.4 05:19:38 13° NE 05:19:38 13° NE 05:20:22 10° NE visible
23 Nov -2.3 06:52:33 10° NW 06:55:42 40° NNE 06:58:51 10° E visible
24 Nov -1.7 06:04:49 23° N 06:05:51 27° NNE 06:08:45 10° E visible
25 Nov -0.6 05:17:10 17° NE 05:17:10 17° NE 05:18:28 10° ENE visible
25 Nov -3.3 06:49:59 13° NW 06:52:53 83° SW 06:56:11 10° SE visible
26 Nov -2.9 06:02:20 44° NNW 06:03:02 56° NNE 06:06:17 10° ESE visible
27 Nov -0.7 05:14:42 21° E 05:14:42 21° E 05:16:08 10° E visible
27 Nov -2.1 06:47:31 15° W 06:49:40 29° SW 06:52:34 10° SSE visible
28 Nov -3.1 05:59:54 55° SSW 05:59:54 55° SSW 06:03:03 10° SE visible
29 Nov -0.5 05:12:18 17° ESE 05:12:18 17° ESE 05:13:10 10° ESE visible
29 Nov -1.0 06:45:08 10° WSW 06:46:03 11° SW 06:47:07 10° SSW visible
30 Nov -1.1 05:57:34 16° SSW 05:57:34 16° SSW 05:58:43 10° S visible
